カタログに戻る

KUIPER-00101

運用中通信LEO
NORAD 65947·PAYLOAD·🇺🇸 United States

打ち上げ Oct 14, 2025 から Cape Canaveral Space Force Station

Loading…

次のパス (今後24時間)

TLE

最新Source: CelesTrak SupGP

元期: Sep 15, 2026, 05:09 UTC

1 65947C 25228A   26258.21509259 -.00026267  00000+0 -34377-2 0  2584
2 65947  51.8967 242.4598 0000532  80.4338  85.2450 14.79966143    14

AllMySatでKUIPER-00101をリアルタイム追跡

Download on the App Store